Time,TemperatureF,DewpointF,PressureIn,WindDirection,WindDirectionDegrees,WindSpeedMPH,WindSpeedGustMPH,Humidity,HourlyPrecipIn,Conditions,Clouds,dailyrainin,SoftwareType,DateUTC
2013-07-03 00:01:00,75.8,66.9,30.01,South,182,0.0,-999.0,74,0.00,,,0.00,Wunderground v.1.12,2013-07-03 04:01:00,
2013-07-03 00:03:00,75.6,66.7,30.01,ESE,109,0.0,-999.0,74,0.00,,,0.00,Wunderground v.1.12,2013-07-03 04:03:00,
2013-07-03 00:05:00,75.6,67.1,30.01,ESE,108,0.0,-999.0,75,0.00,,,0.00,Wunderground v.1.12,2013-07-03 04:05:00,
2013-07-03 00:08:00,75.6,67.1,30.01,ESE,106,0.0,-999.0,75,0.00,,,0.00,Wunderground v.1.12,2013-07-03 04:08:00,
2013-07-03 00:09:00,75.4,66.9,30.01,ESE,106,0.0,-999.0,75,0.00,,,0.00,Wunderground v.1.12,2013-07-03 04:09:00,
2013-07-03 00:15:00,75.3,66.8,30.01,East,101,0.0,-999.0,75,0.00,,,0.00,Wunderground v.1.12,2013-07-03 04:15:00,
2013-07-03 00:20:00,75.3,66.8,30.01,East,91,0.0,-999.0,75,0.00,,,0.00,Wunderground v.1.12,2013-07-03 04:20:00,
2013-07-03 00:26:00,75.1,67.0,30.01,East,91,0.0,-999.0,76,0.00,,,0.00,Wunderground v.1.12,2013-07-03 04:26:00,
2013-07-03 00:31:00,74.9,66.8,30.01,East,91,0.0,-999.0,76,0.00,,,0.00,Wunderground v.1.12,2013-07-03 04:31:00,
2013-07-03 00:35:00,74.9,66.8,30.01,East,89,0.0,-999.0,76,0.00,,,0.00,Wunderground v.1.12,2013-07-03 04:35:00,
2013-07-03 00:38:00,74.7,67.0,30.01,East,88,0.0,-999.0,77,0.00,,,0.00,Wunderground v.1.12,2013-07-03 04:38:00,
2013-07-03 00:44:00,74.7,67.0,30.01,East,88,0.0,-999.0,77,0.00,,,0.00,Wunderground v.1.12,2013-07-03 04:44:00,
2013-07-03 00:49:00,74.6,-99.9,30.01,East,89,0.0,-999.0,255,0.00,,,0.00,Wunderground v.1.12,2013-07-03 04:49:00,
2013-07-03 00:55:00,74.6,67.3,30.02,East,89,0.0,-999.0,78,0.00,,,0.00,Wunderground v.1.12,2013-07-03 04:55:00,
2013-07-03 01:00:00,74.6,67.3,30.02,ESE,122,0.0,-999.0,78,0.00,,,0.00,Wunderground v.1.12,2013-07-03 05:00:00,
2013-07-03 01:06:00,74.4,67.5,30.02,ESE,120,0.0,-999.0,79,0.00,,,0.00,Wunderground v.1.12,2013-07-03 05:06:00,
2013-07-03 01:08:00,74.4,67.5,30.02,ESE,120,0.0,-999.0,79,0.00,,,0.00,Wunderground v.1.12,2013-07-03 05:08:00,
2013-07-03 01:11:00,74.4,67.5,30.02,ESE,120,0.0,-999.0,79,0.00,,,0.00,Wunderground v.1.12,2013-07-03 05:11:00,
2013-07-03 01:16:00,74.4,67.8,30.02,East,91,0.0,-999.0,80,0.00,,,0.00,Wunderground v.1.12,2013-07-03 05:16:00,
2013-07-03 01:21:00,74.4,67.8,30.02,SSE,147,0.0,-999.0,80,0.00,,,0.00,Wunderground v.1.12,2013-07-03 05:21:00,
2013-07-03 01:26:00,74.2,68.0,30.02,NNE,12,0.0,-999.0,81,0.00,,,0.00,Wunderground v.1.12,2013-07-03 05:26:00,
2013-07-03 01:31:00,74.2,68.0,30.02,NE,34,0.0,-999.0,81,0.00,,,0.00,Wunderground v.1.12,2013-07-03 05:31:00,
2013-07-03 01:38:00,74.2,68.0,30.02,NE,36,0.0,-999.0,81,0.00,,,0.00,Wunderground v.1.12,2013-07-03 05:38:00,
2013-07-03 01:43:00,74.2,68.0,30.01,NE,36,0.0,-999.0,81,0.00,,,0.00,Wunderground v.1.12,2013-07-03 05:43:00,
2013-07-03 01:49:00,74.2,68.0,30.01,NE,36,0.0,-999.0,81,0.00,,,0.00,Wunderground v.1.12,2013-07-03 05:49:00,
2013-07-03 01:55:00,74.0,68.2,30.00,NE,55,0.0,-999.0,82,0.00,,,0.00,Wunderground v.1.12,2013-07-03 05:55:00,
2013-07-03 01:58:00,74.0,68.2,30.00,ENE,70,0.0,-999.0,82,0.00,,,0.00,Wunderground v.1.12,2013-07-03 05:58:00,
2013-07-03 02:00:00,74.0,68.2,30.00,ENE,68,0.0,-999.0,82,0.00,,,0.00,Wunderground v.1.12,2013-07-03 06:00:00,
2013-07-03 02:06:00,74.0,68.2,30.00,NNE,31,0.0,-999.0,82,0.00,,,0.00,Wunderground v.1.12,2013-07-03 06:06:00,
2013-07-03 02:11:00,73.9,68.1,30.00,NNE,31,0.0,-999.0,82,0.00,,,0.00,Wunderground v.1.12,2013-07-03 06:11:00,
2013-07-03 02:13:00,73.9,68.4,30.00,NNE,31,0.0,-999.0,83,0.00,,,0.00,Wunderground v.1.12,2013-07-03 06:13:00,
2013-07-03 02:17:00,73.9,68.4,30.00,NNE,31,0.0,-999.0,83,0.00,,,0.00,Wunderground v.1.12,2013-07-03 06:17:00,
2013-07-03 02:19:00,73.9,68.4,30.00,NNE,31,0.0,-999.0,83,0.00,,,0.00,Wunderground v.1.12,2013-07-03 06:19:00,
2013-07-03 02:22:00,73.9,68.4,30.00,NNE,31,0.0,-999.0,83,0.00,,,0.00,Wunderground v.1.12,2013-07-03 06:22:00,
2013-07-03 02:24:00,73.7,68.2,30.00,NNE,31,0.0,-999.0,83,0.00,,,0.00,Wunderground v.1.12,2013-07-03 06:24:00,
2013-07-03 02:26:00,73.7,68.2,30.00,NNE,31,0.0,-999.0,83,0.00,,,0.00,Wunderground v.1.12,2013-07-03 06:26:00,
2013-07-03 02:31:00,73.7,68.2,30.00,NNE,33,0.0,-999.0,83,0.00,,,0.00,Wunderground v.1.12,2013-07-03 06:31:00,
2013-07-03 02:32:00,73.7,68.2,30.00,NNE,33,0.0,-999.0,83,0.00,,,0.00,Wunderground v.1.12,2013-07-03 06:32:00,
2013-07-03 02:37:00,73.7,68.6,30.00,NNE,30,0.0,-999.0,84,0.00,,,0.00,Wunderground v.1.12,2013-07-03 06:37:00,
2013-07-03 02:42:00,73.7,68.6,30.00,NNE,31,0.0,-999.0,84,0.00,,,0.00,Wunderground v.1.12,2013-07-03 06:42:00,
2013-07-03 02:43:00,73.7,68.6,30.00,NNE,31,0.0,-999.0,84,0.00,,,0.00,Wunderground v.1.12,2013-07-03 06:43:00,
2013-07-03 02:48:00,73.5,68.4,30.00,NNE,31,0.0,-999.0,84,0.00,,,0.00,Wunderground v.1.12,2013-07-03 06:48:00,
2013-07-03 02:53:00,73.5,68.4,30.00,NNE,31,0.0,-999.0,84,0.00,,,0.00,Wunderground v.1.12,2013-07-03 06:53:00,
2013-07-03 02:55:00,73.5,68.4,29.99,SE,146,0.0,-999.0,84,0.00,,,0.00,Wunderground v.1.12,2013-07-03 06:55:00,
2013-07-03 03:00:00,73.5,68.4,29.99,SE,146,0.0,-999.0,84,0.00,,,0.00,Wunderground v.1.12,2013-07-03 07:00:00,
2013-07-03 03:05:00,73.5,68.4,29.99,SE,146,0.0,-999.0,84,0.00,,,0.00,Wunderground v.1.12,2013-07-03 07:05:00,
2013-07-03 03:11:00,73.5,68.4,29.99,ESE,112,0.0,-999.0,84,0.00,,,0.00,Wunderground v.1.12,2013-07-03 07:11:00,
2013-07-03 03:16:00,73.5,68.4,29.99,NNE,17,0.0,-999.0,84,0.00,,,0.00,Wunderground v.1.12,2013-07-03 07:16:00,
2013-07-03 03:22:00,73.5,68.4,29.99,NNE,19,0.0,-999.0,84,0.00,,,0.00,Wunderground v.1.12,2013-07-03 07:22:00,
2013-07-03 03:27:00,73.3,68.2,29.99,NNE,19,0.0,-999.0,84,0.00,,,0.00,Wunderground v.1.12,2013-07-03 07:27:00,
2013-07-03 03:32:00,73.3,68.2,29.99,NNE,30,0.0,-999.0,84,0.00,,,0.00,Wunderground v.1.12,2013-07-03 07:32:00,
2013-07-03 03:38:00,73.2,68.1,29.99,NNE,30,0.0,-999.0,84,0.00,,,0.00,Wunderground v.1.12,2013-07-03 07:38:00,
2013-07-03 03:39:00,73.2,68.1,29.99,NNE,30,0.0,-999.0,84,0.00,,,0.00,Wunderground v.1.12,2013-07-03 07:39:00,
2013-07-03 03:44:00,73.2,68.4,29.99,NNE,30,0.0,-999.0,85,0.00,,,0.00,Wunderground v.1.12,2013-07-03 07:44:00,
2013-07-03 03:49:00,73.2,68.4,29.99,NNE,30,0.0,-999.0,85,0.00,,,0.00,Wunderground v.1.12,2013-07-03 07:49:00,
2013-07-03 03:50:00,73.2,68.4,29.99,NNE,30,0.0,-999.0,85,0.00,,,0.00,Wunderground v.1.12,2013-07-03 07:50:00,
2013-07-03 03:55:00,73.2,68.4,30.00,NNE,30,0.0,-999.0,85,0.00,,,0.00,Wunderground v.1.12,2013-07-03 07:55:00,
2013-07-03 04:01:00,73.2,68.4,30.00,NNE,30,0.0,-999.0,85,0.00,,,0.00,Wunderground v.1.12,2013-07-03 08:01:00,
2013-07-03 04:06:00,73.2,68.4,30.00,East,86,0.0,-999.0,85,0.00,,,0.00,Wunderground v.1.12,2013-07-03 08:06:00,
2013-07-03 04:09:00,73.2,68.4,30.00,East,85,0.0,-999.0,85,0.00,,,0.00,Wunderground v.1.12,2013-07-03 08:09:00,
2013-07-03 04:15:00,73.2,68.4,30.00,East,88,0.0,-999.0,85,0.00,,,0.00,Wunderground v.1.12,2013-07-03 08:15:00,
2013-07-03 04:16:00,73.2,68.4,30.00,East,88,0.0,-999.0,85,0.00,,,0.00,Wunderground v.1.12,2013-07-03 08:16:00,
2013-07-03 04:18:00,73.2,68.4,30.00,East,88,0.0,-999.0,85,0.00,,,0.00,Wunderground v.1.12,2013-07-03 08:18:00,
2013-07-03 04:23:00,73.2,68.4,30.00,East,86,0.0,-999.0,85,0.00,,,0.00,Wunderground v.1.12,2013-07-03 08:23:00,
2013-07-03 04:29:00,73.2,68.4,30.00,SE,146,0.0,-999.0,85,0.00,,,0.00,Wunderground v.1.12,2013-07-03 08:29:00,
2013-07-03 04:34:00,73.2,68.4,30.00,SE,146,0.0,-999.0,85,0.00,,,0.00,Wunderground v.1.12,2013-07-03 08:34:00,
2013-07-03 04:39:00,73.2,68.4,30.00,SE,146,0.0,-999.0,85,0.00,,,0.00,Wunderground v.1.12,2013-07-03 08:39:00,
2013-07-03 04:44:00,73.2,68.4,30.01,SE,146,0.0,-999.0,85,0.00,,,0.00,Wunderground v.1.12,2013-07-03 08:44:00,
2013-07-03 04:47:00,73.3,68.5,30.01,SE,146,0.0,-999.0,85,0.00,,,0.00,Wunderground v.1.12,2013-07-03 08:47:00,
2013-07-03 04:54:00,73.3,68.5,30.01,SE,146,0.0,-999.0,85,0.00,,,0.00,Wunderground v.1.12,2013-07-03 08:54:00,
2013-07-03 04:55:00,73.3,68.5,30.02,SE,146,0.0,-999.0,85,0.00,,,0.00,Wunderground v.1.12,2013-07-03 08:55:00,
2013-07-03 05:00:00,73.3,68.5,30.02,SE,146,0.0,-999.0,85,0.00,,,0.00,Wunderground v.1.12,2013-07-03 09:00:00,
2013-07-03 05:06:00,73.3,68.5,30.02,SE,146,0.0,-999.0,85,0.00,,,0.00,Wunderground v.1.12,2013-07-03 09:06:00,
2013-07-03 05:11:00,73.3,68.5,30.02,SE,146,0.0,-999.0,85,0.00,,,0.00,Wunderground v.1.12,2013-07-03 09:11:00,
2013-07-03 05:16:00,73.3,68.5,30.02,SE,146,0.0,-999.0,85,0.00,,,0.00,Wunderground v.1.12,2013-07-03 09:16:00,
2013-07-03 05:21:00,73.3,68.5,30.02,SE,146,0.0,-999.0,85,0.00,,,0.00,Wunderground v.1.12,2013-07-03 09:21:00,
2013-07-03 05:26:00,73.5,68.7,30.02,SE,146,0.0,-999.0,85,0.00,,,0.00,Wunderground v.1.12,2013-07-03 09:26:00,
2013-07-03 05:31:00,73.5,68.7,30.02,SE,146,0.0,-999.0,85,0.00,,,0.00,Wunderground v.1.12,2013-07-03 09:31:00,
2013-07-03 05:36:00,73.5,68.7,30.02,SE,146,0.0,-999.0,85,0.00,,,0.00,Wunderground v.1.12,2013-07-03 09:36:00,
2013-07-03 05:41:00,73.5,68.7,30.02,SE,146,0.0,-999.0,85,0.00,,,0.00,Wunderground v.1.12,2013-07-03 09:41:00,
2013-07-03 05:46:00,73.5,68.7,30.02,SE,146,0.0,-999.0,85,0.00,,,0.00,Wunderground v.1.12,2013-07-03 09:46:00,
2013-07-03 05:49:00,73.5,68.7,30.02,SE,146,0.0,-999.0,85,0.00,,,0.00,Wunderground v.1.12,2013-07-03 09:49:00,
2013-07-03 05:50:00,73.5,68.7,30.02,SE,146,0.0,-999.0,85,0.00,,,0.00,Wunderground v.1.12,2013-07-03 09:50:00,
2013-07-03 05:55:00,73.5,68.7,30.02,SE,146,0.0,-999.0,85,0.00,,,0.00,Wunderground v.1.12,2013-07-03 09:55:00,
2013-07-03 06:00:00,73.5,68.7,30.02,SE,146,0.0,-999.0,85,0.00,,,0.00,Wunderground v.1.12,2013-07-03 10:00:00,
2013-07-03 06:04:00,73.5,68.7,30.02,SE,140,0.0,-999.0,85,0.00,,,0.00,Wunderground v.1.12,2013-07-03 10:04:00,
2013-07-03 06:05:00,73.5,68.7,30.02,SE,140,0.0,-999.0,85,0.00,,,0.00,Wunderground v.1.12,2013-07-03 10:05:00,
2013-07-03 06:10:00,73.3,68.5,30.02,SE,140,0.0,-999.0,85,0.00,,,0.00,Wunderground v.1.12,2013-07-03 10:10:00,
2013-07-03 06:15:00,73.3,68.9,30.02,SE,140,0.0,-999.0,86,0.00,,,0.00,Wunderground v.1.12,2013-07-03 10:15:00,
2013-07-03 06:20:00,73.3,68.9,30.02,SE,140,0.0,-999.0,86,0.00,,,0.00,Wunderground v.1.12,2013-07-03 10:20:00,
2013-07-03 06:25:00,73.3,68.9,30.02,SE,140,0.0,-999.0,86,0.00,,,0.00,Wunderground v.1.12,2013-07-03 10:25:00,
2013-07-03 06:31:00,73.3,68.9,30.02,SE,140,0.0,-999.0,86,0.00,,,0.00,Wunderground v.1.12,2013-07-03 10:31:00,
2013-07-03 06:36:00,73.3,68.9,30.02,SE,140,0.0,-999.0,86,0.00,,,0.00,Wunderground v.1.12,2013-07-03 10:36:00,
2013-07-03 06:41:00,73.3,68.9,30.02,SE,140,0.0,-999.0,86,0.00,,,0.00,Wunderground v.1.12,2013-07-03 10:41:00,
2013-07-03 06:46:00,73.2,68.8,30.02,SE,140,0.0,-999.0,86,0.00,,,0.00,Wunderground v.1.12,2013-07-03 10:46:00,
2013-07-03 06:49:00,73.2,68.8,30.02,SE,140,0.0,-999.0,86,0.00,,,0.00,Wunderground v.1.12,2013-07-03 10:49:00,
2013-07-03 06:54:00,73.2,68.8,30.02,SE,140,0.0,-999.0,86,0.00,,,0.00,Wunderground v.1.12,2013-07-03 10:54:00,
2013-07-03 06:55:00,73.2,68.8,30.02,SE,140,0.0,-999.0,86,0.00,,,0.00,Wunderground v.1.12,2013-07-03 10:55:00,
2013-07-03 06:57:00,73.2,68.8,30.02,SE,140,0.0,-999.0,86,0.00,,,0.00,Wunderground v.1.12,2013-07-03 10:57:00,
2013-07-03 07:02:00,73.2,68.8,30.02,SE,140,0.0,-999.0,86,0.00,,,0.00,Wunderground v.1.12,2013-07-03 11:02:00,
2013-07-03 07:07:00,73.0,68.6,30.02,SE,140,0.0,-999.0,86,0.00,,,0.00,Wunderground v.1.12,2013-07-03 11:07:00,
2013-07-03 07:08:00,73.0,68.6,30.02,SE,140,0.0,-999.0,86,0.00,,,0.00,Wunderground v.1.12,2013-07-03 11:08:00,
2013-07-03 07:09:00,73.0,68.6,30.02,SE,140,0.0,-999.0,86,0.00,,,0.00,Wunderground v.1.12,2013-07-03 11:09:00,
2013-07-03 07:14:00,73.0,68.6,30.02,SE,140,0.0,-999.0,86,0.00,,,0.00,Wunderground v.1.12,2013-07-03 11:14:00,
2013-07-03 07:19:00,73.0,68.6,30.02,SE,140,0.0,-999.0,86,0.00,,,0.00,Wunderground v.1.12,2013-07-03 11:19:00,
2013-07-03 07:24:00,73.0,68.9,30.02,SE,140,0.0,-999.0,87,0.00,,,0.00,Wunderground v.1.12,2013-07-03 11:24:00,
2013-07-03 07:26:00,73.0,68.9,30.02,SE,140,0.0,-999.0,87,0.00,,,0.00,Wunderground v.1.12,2013-07-03 11:26:00,
2013-07-03 07:31:00,73.0,68.9,30.02,SE,140,0.0,-999.0,87,0.00,,,0.00,Wunderground v.1.12,2013-07-03 11:31:00,
2013-07-03 07:36:00,73.0,68.9,30.02,SE,140,0.0,-999.0,87,0.00,,,0.00,Wunderground v.1.12,2013-07-03 11:36:00,
2013-07-03 07:41:00,73.2,69.1,30.02,SE,140,0.0,-999.0,87,0.00,,,0.00,Wunderground v.1.12,2013-07-03 11:41:00,
2013-07-03 07:46:00,73.2,69.4,30.02,East,99,0.0,-999.0,88,0.00,,,0.00,Wunderground v.1.12,2013-07-03 11:46:00,
2013-07-03 07:51:00,73.2,69.4,30.02,East,99,0.0,-999.0,88,0.00,,,0.00,Wunderground v.1.12,2013-07-03 11:51:00,
2013-07-03 07:56:00,73.3,69.5,30.03,East,99,0.0,-999.0,88,0.00,,,0.00,Wunderground v.1.12,2013-07-03 11:56:00,
2013-07-03 07:59:00,73.3,69.5,30.03,East,99,0.0,-999.0,88,0.00,,,0.00,Wunderground v.1.12,2013-07-03 11:59:00,
2013-07-03 08:02:00,73.3,69.5,30.03,East,99,0.0,-999.0,88,0.00,,,0.00,Wunderground v.1.12,2013-07-03 12:02:00,
2013-07-03 08:07:00,73.3,69.5,30.03,East,99,0.0,-999.0,88,0.00,,,0.00,Wunderground v.1.12,2013-07-03 12:07:00,
2013-07-03 08:12:00,73.5,69.7,30.04,East,99,0.0,-999.0,88,0.00,,,0.00,Wunderground v.1.12,2013-07-03 12:12:00,
2013-07-03 08:14:00,73.5,69.7,30.04,East,99,0.0,-999.0,88,0.00,,,0.00,Wunderground v.1.12,2013-07-03 12:14:00,
2013-07-03 08:18:00,73.5,69.7,30.04,East,99,0.0,-999.0,88,0.00,,,0.00,Wunderground v.1.12,2013-07-03 12:18:00,
2013-07-03 08:21:00,73.5,69.7,30.04,East,99,0.0,-999.0,88,0.00,,,0.00,Wunderground v.1.12,2013-07-03 12:21:00,
2013-07-03 08:26:00,73.7,69.9,30.04,East,99,0.0,-999.0,88,0.00,,,0.00,Wunderground v.1.12,2013-07-03 12:26:00,
2013-07-03 08:32:00,73.7,69.9,30.04,East,99,0.0,-999.0,88,0.00,,,0.00,Wunderground v.1.12,2013-07-03 12:32:00,
2013-07-03 08:37:00,73.7,69.6,30.04,East,99,0.0,-999.0,87,0.00,,,0.00,Wunderground v.1.12,2013-07-03 12:37:00,
2013-07-03 08:42:00,73.7,69.6,30.05,East,81,0.0,-999.0,87,0.00,,,0.00,Wunderground v.1.12,2013-07-03 12:42:00,
2013-07-03 08:47:00,73.7,69.6,30.05,East,81,0.0,-999.0,87,0.00,,,0.00,Wunderground v.1.12,2013-07-03 12:47:00,
2013-07-03 08:52:00,73.7,69.6,30.05,East,79,0.0,-999.0,87,0.00,,,0.00,Wunderground v.1.12,2013-07-03 12:52:00,
2013-07-03 08:57:00,73.9,69.8,30.05,East,84,0.0,-999.0,87,0.00,,,0.00,Wunderground v.1.12,2013-07-03 12:57:00,
2013-07-03 09:02:00,73.9,69.8,30.05,East,84,0.0,-999.0,87,0.00,,,0.00,Wunderground v.1.12,2013-07-03 13:02:00,
2013-07-03 09:08:00,73.9,69.8,30.05,SSE,154,0.0,-999.0,87,0.00,,,0.00,Wunderground v.1.12,2013-07-03 13:08:00,
2013-07-03 09:14:00,73.9,69.8,30.05,SSE,154,0.0,-999.0,87,0.00,,,0.00,Wunderground v.1.12,2013-07-03 13:14:00,
2013-07-03 09:19:00,73.9,69.8,30.05,SSE,154,0.0,-999.0,87,0.00,,,0.00,Wunderground v.1.12,2013-07-03 13:19:00,
2013-07-03 09:24:00,73.9,69.8,30.05,SSE,149,0.0,-999.0,87,0.00,,,0.00,Wunderground v.1.12,2013-07-03 13:24:00,
2013-07-03 09:25:00,73.9,69.8,30.05,SSE,149,0.0,-999.0,87,0.00,,,0.00,Wunderground v.1.12,2013-07-03 13:25:00,
2013-07-03 09:30:00,73.9,69.8,30.05,SSE,149,0.0,-999.0,87,0.00,,,0.00,Wunderground v.1.12,2013-07-03 13:30:00,
2013-07-03 09:35:00,73.9,69.8,30.05,SSE,149,0.0,-999.0,87,0.00,,,0.00,Wunderground v.1.12,2013-07-03 13:35:00,
2013-07-03 09:38:00,73.9,69.8,30.05,SSE,149,0.0,-999.0,87,0.00,,,0.00,Wunderground v.1.12,2013-07-03 13:38:00,
2013-07-03 09:43:00,73.9,69.8,30.04,SSE,149,0.0,-999.0,87,0.00,,,0.00,Wunderground v.1.12,2013-07-03 13:43:00,
2013-07-03 09:49:00,73.9,70.1,30.04,SSE,149,0.0,-999.0,88,0.00,,,0.00,Wunderground v.1.12,2013-07-03 13:49:00,
2013-07-03 09:54:00,73.9,70.1,30.04,ESE,115,0.0,-999.0,88,0.00,,,0.00,Wunderground v.1.12,2013-07-03 13:54:00,
2013-07-03 09:59:00,73.9,70.1,30.06,ESE,115,0.0,-999.0,88,0.00,,,0.01,Wunderground v.1.12,2013-07-03 13:59:00,
2013-07-03 10:04:00,73.7,69.9,30.06,North,7,0.0,-999.0,88,0.00,,,0.01,Wunderground v.1.12,2013-07-03 14:04:00,
2013-07-03 10:06:00,73.7,69.9,30.06,North,356,0.0,-999.0,88,0.08,,,0.02,Wunderground v.1.12,2013-07-03 14:06:00,
2013-07-03 10:09:00,73.7,69.9,30.06,North,358,0.0,-999.0,88,0.08,,,0.02,Wunderground v.1.12,2013-07-03 14:09:00,
2013-07-03 10:14:00,73.7,69.9,30.06,North,358,0.0,-999.0,88,0.06,,,0.02,Wunderground v.1.12,2013-07-03 14:14:00,
2013-07-03 10:18:00,73.5,69.7,30.06,SSE,151,0.0,-999.0,88,0.04,,,0.02,Wunderground v.1.12,2013-07-03 14:18:00,
2013-07-03 10:23:00,73.5,69.7,30.06,ENE,77,0.0,-999.0,88,0.41,,,0.04,Wunderground v.1.12,2013-07-03 14:23:00,
2013-07-03 10:29:00,73.3,69.9,30.07,ENE,77,0.0,-999.0,89,2.27,,,0.12,Wunderground v.1.12,2013-07-03 14:29:00,
2013-07-03 10:32:00,73.3,69.9,30.07,NW,326,0.0,-999.0,89,0.55,,,0.14,Wunderground v.1.12,2013-07-03 14:32:00,
2013-07-03 10:42:00,73.3,69.5,30.07,SSE,158,0.0,1.0,88,0.16,,,0.29,Wunderground v.1.12,2013-07-03 14:42:00,
2013-07-03 10:47:00,72.8,69.0,30.07,SE,135,1.0,6.0,88,0.18,,,0.29,Wunderground v.1.12,2013-07-03 14:47:00,
2013-07-03 10:52:00,72.2,68.4,30.07,N/A,-737280,0.0,0.0,88,0.22,,,0.29,Wunderground v.1.12,2013-07-03 14:52:00,
2013-07-03 10:57:00,72.0,67.9,30.07,N/A,-737280,0.0,0.0,87,0.24,,,0.29,Wunderground v.1.12,2013-07-03 14:57:00,
2013-07-03 11:02:00,71.5,67.4,30.09,N/A,-737280,0.0,0.0,87,0.27,,,0.29,Wunderground v.1.12,2013-07-03 15:02:00,
2013-07-03 11:07:00,71.1,67.0,30.09,N/A,-737280,0.0,0.0,87,0.27,,,0.29,Wunderground v.1.12,2013-07-03 15:07:00,
2013-07-03 11:23:00,70.1,66.0,30.11,NNE,19,0.0,-999.0,87,0.26,,,0.51,Wunderground v.1.12,2013-07-03 15:23:00,
2013-07-03 11:30:00,70.0,66.0,30.09,N/A,-737280,0.0,0.0,87,0.48,,,0.52,Wunderground v.1.12,2013-07-03 15:30:00,
2013-07-03 11:39:00,69.3,65.3,30.09,NNE,19,0.0,-999.0,87,0.83,,,0.67,Wunderground v.1.12,2013-07-03 15:39:00,
2013-07-03 11:40:00,69.1,65.1,30.10,NNE,19,0.0,-999.0,87,0.47,,,0.68,Wunderground v.1.12,2013-07-03 15:40:00,
2013-07-03 11:45:00,69.1,65.1,30.10,NNE,19,0.0,-999.0,87,0.28,,,0.70,Wunderground v.1.12,2013-07-03 15:45:00,
2013-07-03 11:50:00,68.9,65.2,30.10,NNE,19,0.0,-999.0,88,0.09,,,0.70,Wunderground v.1.12,2013-07-03 15:50:00,
2013-07-03 11:52:00,68.9,65.2,30.10,NNE,19,0.0,-999.0,88,0.07,,,0.71,Wunderground v.1.12,2013-07-03 15:52:00,
2013-07-03 11:54:00,68.8,65.1,30.10,NNE,19,0.0,-999.0,88,0.07,,,0.71,Wunderground v.1.12,2013-07-03 15:54:00,
2013-07-03 11:59:00,68.8,65.1,30.10,NNE,19,0.0,-999.0,88,0.45,,,0.74,Wunderground v.1.12,2013-07-03 15:59:00,
2013-07-03 12:04:00,68.8,65.1,30.10,NNE,19,0.0,-999.0,88,0.31,,,0.78,Wunderground v.1.12,2013-07-03 16:04:00,
2013-07-03 12:10:00,68.6,65.2,30.09,NNE,19,0.0,-999.0,89,0.17,,,0.79,Wunderground v.1.12,2013-07-03 16:10:00,
2013-07-03 12:15:00,68.6,65.2,30.09,NNE,19,0.0,-999.0,89,0.08,,,0.79,Wunderground v.1.12,2013-07-03 16:15:00,
2013-07-03 12:20:00,68.6,65.2,30.09,NNE,19,0.0,-999.0,89,0.19,,,0.80,Wunderground v.1.12,2013-07-03 16:20:00,
2013-07-03 12:25:00,68.8,65.7,30.09,NNE,19,0.0,-999.0,90,0.09,,,0.80,Wunderground v.1.12,2013-07-03 16:25:00,
2013-07-03 12:30:00,68.8,65.7,30.09,NNE,19,0.0,-999.0,90,0.06,,,0.80,Wunderground v.1.12,2013-07-03 16:30:00,
2013-07-03 12:35:00,68.8,65.7,30.09,NNE,19,0.0,-999.0,90,2.88,,,0.85,Wunderground v.1.12,2013-07-03 16:35:00,
2013-07-03 12:40:00,68.6,65.5,30.11,NNE,19,0.0,-999.0,90,0.51,,,1.02,Wunderground v.1.12,2013-07-03 16:40:00,
2013-07-03 12:45:00,68.4,65.4,30.11,NNE,19,0.0,-999.0,90,0.63,,,1.07,Wunderground v.1.12,2013-07-03 16:45:00,
2013-07-03 12:51:00,68.6,65.9,30.11,NNE,17,0.0,-999.0,91,0.31,,,1.11,Wunderground v.1.12,2013-07-03 16:51:00,
2013-07-03 12:56:00,68.4,65.7,30.09,NNW,335,0.0,-999.0,91,0.29,,,1.13,Wunderground v.1.12,2013-07-03 16:56:00,
2013-07-03 13:01:00,68.4,65.7,30.09,NNW,335,0.0,-999.0,91,0.10,,,1.13,Wunderground v.1.12,2013-07-03 17:01:00,
2013-07-03 13:06:00,68.3,65.6,30.09,NNW,336,0.0,-999.0,91,0.35,,,1.15,Wunderground v.1.12,2013-07-03 17:06:00,
2013-07-03 13:12:00,68.3,65.6,30.09,NNW,336,0.0,-999.0,91,0.28,,,1.18,Wunderground v.1.12,2013-07-03 17:12:00,
2013-07-03 13:17:00,68.3,65.9,30.09,NNW,336,0.0,-999.0,92,0.13,,,1.19,Wunderground v.1.12,2013-07-03 17:17:00,
2013-07-03 13:22:00,68.3,65.9,30.09,NNW,338,0.0,-999.0,92,0.06,,,1.19,Wunderground v.1.12,2013-07-03 17:22:00,
2013-07-03 13:27:00,68.3,65.9,30.08,NNW,336,0.0,-999.0,92,0.04,,,1.19,Wunderground v.1.12,2013-07-03 17:27:00,
2013-07-03 13:33:00,68.3,65.9,30.08,NNW,338,0.0,-999.0,92,0.00,,,1.19,Wunderground v.1.12,2013-07-03 17:33:00,
2013-07-03 13:38:00,68.1,65.7,30.08,NNW,338,0.0,-999.0,92,0.00,,,1.19,Wunderground v.1.12,2013-07-03 17:38:00,
2013-07-03 13:43:00,68.1,65.7,30.10,NNW,338,0.0,-999.0,92,0.00,,,1.20,Wunderground v.1.12,2013-07-03 17:43:00,
2013-07-03 13:48:00,68.1,65.7,30.10,NNW,338,0.0,-999.0,92,0.14,,,1.21,Wunderground v.1.12,2013-07-03 17:48:00,
2013-07-03 13:53:00,68.1,65.7,30.10,NNW,338,0.0,-999.0,92,0.06,,,1.21,Wunderground v.1.12,2013-07-03 17:53:00,
2013-07-03 13:59:00,68.1,65.7,30.10,NNW,338,0.0,-999.0,92,0.04,,,1.22,Wunderground v.1.12,2013-07-03 17:59:00,
2013-07-03 14:04:00,68.1,65.7,30.10,NNW,338,0.0,-999.0,92,0.09,,,1.22,Wunderground v.1.12,2013-07-03 18:04:00,
2013-07-03 14:09:00,68.1,65.7,30.10,NNW,338,0.0,-999.0,92,0.09,,,1.23,Wunderground v.1.12,2013-07-03 18:09:00,
2013-07-03 14:14:00,68.1,65.7,30.10,NNW,338,0.0,-999.0,92,0.06,,,1.23,Wunderground v.1.12,2013-07-03 18:14:00,
2013-07-03 14:19:00,68.1,65.7,30.10,NNW,338,0.0,-999.0,92,0.04,,,1.24,Wunderground v.1.12,2013-07-03 18:19:00,
2013-07-03 14:24:00,68.1,66.0,30.10,NNW,338,0.0,-999.0,93,0.04,,,1.24,Wunderground v.1.12,2013-07-03 18:24:00,
2013-07-03 14:29:00,68.1,66.0,30.10,NNW,338,0.0,-999.0,93,0.10,,,1.25,Wunderground v.1.12,2013-07-03 18:29:00,
2013-07-03 14:35:00,68.1,66.0,30.10,NNW,338,0.0,-999.0,93,0.06,,,1.25,Wunderground v.1.12,2013-07-03 18:35:00,
2013-07-03 14:40:00,68.1,66.0,30.10,NNW,338,0.0,-999.0,93,0.23,,,1.27,Wunderground v.1.12,2013-07-03 18:40:00,
2013-07-03 14:45:00,68.1,66.0,30.10,NNW,338,0.0,-999.0,93,0.09,,,1.28,Wunderground v.1.12,2013-07-03 18:45:00,
2013-07-03 14:50:00,68.1,66.0,30.10,NNW,338,0.0,-999.0,93,0.12,,,1.29,Wunderground v.1.12,2013-07-03 18:50:00,
2013-07-03 14:55:00,68.1,66.0,30.10,NNW,338,0.0,-999.0,93,0.25,,,1.31,Wunderground v.1.12,2013-07-03 18:55:00,
2013-07-03 15:00:00,68.1,66.0,30.10,NNW,338,0.0,-999.0,93,0.13,,,1.32,Wunderground v.1.12,2013-07-03 19:00:00,
2013-07-03 15:05:00,67.9,65.8,30.10,NNW,338,0.0,-999.0,93,0.15,,,1.33,Wunderground v.1.12,2013-07-03 19:05:00,
2013-07-03 15:10:00,67.9,65.8,30.10,NNW,338,0.0,-999.0,93,0.26,,,1.35,Wunderground v.1.12,2013-07-03 19:10:00,
2013-07-03 15:15:00,67.9,65.8,30.10,NNW,338,0.0,-999.0,93,0.10,,,1.36,Wunderground v.1.12,2013-07-03 19:15:00,
2013-07-03 15:20:00,68.1,66.0,30.10,NNW,338,0.0,-999.0,93,0.15,,,1.37,Wunderground v.1.12,2013-07-03 19:20:00,
2013-07-03 15:25:00,68.1,66.0,30.10,NNW,338,0.0,-999.0,93,0.13,,,1.38,Wunderground v.1.12,2013-07-03 19:25:00,
2013-07-03 15:31:00,68.1,66.0,30.10,NNW,339,0.0,-999.0,93,0.14,,,1.40,Wunderground v.1.12,2013-07-03 19:31:00,
2013-07-03 15:36:00,68.1,66.0,30.10,NNW,339,0.0,-999.0,93,0.14,,,1.41,Wunderground v.1.12,2013-07-03 19:36:00,
2013-07-03 15:41:00,68.1,66.0,30.10,NNW,339,0.0,-999.0,93,0.06,,,1.41,Wunderground v.1.12,2013-07-03 19:41:00,
2013-07-03 15:46:00,68.3,66.5,30.10,NNW,339,0.0,-999.0,94,0.04,,,1.41,Wunderground v.1.12,2013-07-03 19:46:00,
2013-07-03 15:51:00,68.3,66.5,30.10,NNW,339,0.0,-999.0,94,0.00,,,1.41,Wunderground v.1.12,2013-07-03 19:51:00,
2013-07-03 15:57:00,68.4,66.6,30.10,NNW,339,0.0,-999.0,94,0.00,,,1.42,Wunderground v.1.12,2013-07-03 19:57:00,
2013-07-03 16:02:00,68.4,66.6,30.10,NNW,339,0.0,-999.0,94,0.14,,,1.43,Wunderground v.1.12,2013-07-03 20:02:00,
2013-07-03 16:07:00,68.6,66.8,30.10,NNW,339,0.0,-999.0,94,0.08,,,1.43,Wunderground v.1.12,2013-07-03 20:07:00,
2013-07-03 16:12:00,68.6,66.8,30.10,NNW,339,0.0,-999.0,94,0.05,,,1.43,Wunderground v.1.12,2013-07-03 20:12:00,
2013-07-03 16:17:00,68.6,66.8,30.10,NNW,339,0.0,-999.0,94,0.00,,,1.43,Wunderground v.1.12,2013-07-03 20:17:00,
2013-07-03 16:22:00,68.8,67.0,30.10,NNW,339,0.0,-999.0,94,0.00,,,1.44,Wunderground v.1.12,2013-07-03 20:22:00,
2013-07-03 16:27:00,68.9,67.1,30.09,NNW,339,0.0,-999.0,94,0.00,,,1.44,Wunderground v.1.12,2013-07-03 20:27:00,
2013-07-03 16:32:00,68.9,67.1,30.09,NNW,339,0.0,-999.0,94,0.00,,,1.44,Wunderground v.1.12,2013-07-03 20:32:00,
2013-07-03 16:38:00,69.1,67.3,30.09,NNW,339,0.0,-999.0,94,0.00,,,1.44,Wunderground v.1.12,2013-07-03 20:38:00,
2013-07-03 16:43:00,69.1,67.3,30.08,NNW,339,0.0,-999.0,94,0.00,,,1.44,Wunderground v.1.12,2013-07-03 20:43:00,
2013-07-03 16:48:00,69.3,67.5,30.08,NNW,339,0.0,-999.0,94,0.00,,,1.44,Wunderground v.1.12,2013-07-03 20:48:00,
2013-07-03 16:54:00,69.4,67.6,30.08,NNW,339,0.0,-999.0,94,0.00,,,1.44,Wunderground v.1.12,2013-07-03 20:54:00,
2013-07-03 16:59:00,69.8,68.0,30.08,NNW,339,0.0,-999.0,94,0.00,,,1.44,Wunderground v.1.12,2013-07-03 20:59:00,
2013-07-03 17:04:00,69.8,68.0,30.08,NNW,339,0.0,-999.0,94,0.00,,,1.44,Wunderground v.1.12,2013-07-03 21:04:00,
2013-07-03 17:09:00,69.9,68.1,30.08,NNW,339,0.0,-999.0,94,0.00,,,1.44,Wunderground v.1.12,2013-07-03 21:09:00,
2013-07-03 17:14:00,70.3,68.5,30.08,NNW,339,0.0,-999.0,94,0.00,,,1.44,Wunderground v.1.12,2013-07-03 21:14:00,
2013-07-03 17:19:00,70.3,68.5,30.08,NNW,339,0.0,-999.0,94,0.00,,,1.44,Wunderground v.1.12,2013-07-03 21:19:00,
2013-07-03 17:24:00,70.3,68.5,30.08,NNW,339,0.0,-999.0,94,0.00,,,1.44,Wunderground v.1.12,2013-07-03 21:24:00,
2013-07-03 17:29:00,70.3,68.5,30.08,NNW,339,0.0,-999.0,94,0.00,,,1.44,Wunderground v.1.12,2013-07-03 21:29:00,
2013-07-03 17:34:00,70.4,68.6,30.08,NNW,339,0.0,-999.0,94,0.00,,,1.44,Wunderground v.1.12,2013-07-03 21:34:00,
2013-07-03 17:40:00,70.4,68.6,30.07,NNE,20,0.0,-999.0,94,0.00,,,1.44,Wunderground v.1.12,2013-07-03 21:40:00,
2013-07-03 17:45:00,70.6,68.8,30.07,NNE,20,0.0,-999.0,94,0.00,,,1.44,Wunderground v.1.12,2013-07-03 21:45:00,
2013-07-03 17:50:00,70.6,68.8,30.07,NNE,20,0.0,-999.0,94,0.00,,,1.44,Wunderground v.1.12,2013-07-03 21:50:00,
2013-07-03 17:55:00,70.8,69.0,30.07,NNE,20,0.0,-999.0,94,0.00,,,1.44,Wunderground v.1.12,2013-07-03 21:55:00,
2013-07-03 18:00:00,70.8,69.0,30.07,NNE,20,0.0,-999.0,94,0.00,,,1.44,Wunderground v.1.12,2013-07-03 22:00:00,
2013-07-03 18:06:00,70.8,69.0,30.07,NNE,24,0.0,-999.0,94,0.00,,,1.44,Wunderground v.1.12,2013-07-03 22:06:00,
2013-07-03 18:11:00,70.6,68.8,30.07,NNE,24,0.0,-999.0,94,0.00,,,1.44,Wunderground v.1.12,2013-07-03 22:11:00,
2013-07-03 18:16:00,70.4,68.6,30.07,NNE,24,0.0,-999.0,94,0.00,,,1.44,Wunderground v.1.12,2013-07-03 22:16:00,
2013-07-03 18:21:00,70.4,68.3,30.07,NNE,24,0.0,-999.0,93,0.00,,,1.44,Wunderground v.1.12,2013-07-03 22:21:00,
2013-07-03 18:26:00,70.3,68.2,30.07,NNE,24,0.0,-999.0,93,0.00,,,1.44,Wunderground v.1.12,2013-07-03 22:26:00,
2013-07-03 18:31:00,70.3,68.2,30.07,NNE,24,0.0,-999.0,93,0.00,,,1.44,Wunderground v.1.12,2013-07-03 22:31:00,
2013-07-03 18:37:00,70.3,68.2,30.07,NNE,24,0.0,-999.0,93,0.00,,,1.44,Wunderground v.1.12,2013-07-03 22:37:00,
2013-07-03 18:42:00,70.3,68.2,30.07,NNE,24,0.0,-999.0,93,0.00,,,1.44,Wunderground v.1.12,2013-07-03 22:42:00,
2013-07-03 18:47:00,70.1,68.0,30.07,NNE,24,0.0,-999.0,93,0.00,,,1.44,Wunderground v.1.12,2013-07-03 22:47:00,
2013-07-03 18:52:00,70.1,68.0,30.07,NNE,24,0.0,-999.0,93,0.00,,,1.44,Wunderground v.1.12,2013-07-03 22:52:00,
2013-07-03 18:57:00,69.9,67.8,30.08,NNE,26,0.0,-999.0,93,0.00,,,1.44,Wunderground v.1.12,2013-07-03 22:57:00,
2013-07-03 19:02:00,69.9,67.8,30.08,NNE,26,0.0,-999.0,93,0.00,,,1.44,Wunderground v.1.12,2013-07-03 23:02:00,
2013-07-03 19:07:00,69.9,67.8,30.08,NNE,26,0.0,-999.0,93,0.00,,,1.44,Wunderground v.1.12,2013-07-03 23:07:00,
2013-07-03 19:12:00,69.8,67.7,30.08,NNE,26,0.0,-999.0,93,0.00,,,1.44,Wunderground v.1.12,2013-07-03 23:12:00,
2013-07-03 19:17:00,69.8,67.7,30.08,NNE,26,0.0,-999.0,93,0.00,,,1.45,Wunderground v.1.12,2013-07-03 23:17:00,
2013-07-03 19:23:00,69.8,67.7,30.08,NNE,26,0.0,-999.0,93,0.00,,,1.45,Wunderground v.1.12,2013-07-03 23:23:00,
2013-07-03 19:28:00,69.9,67.8,30.08,NNE,26,0.0,-999.0,93,0.00,,,1.45,Wunderground v.1.12,2013-07-03 23:28:00,
2013-07-03 19:33:00,69.9,67.8,30.08,NNE,26,0.0,-999.0,93,0.00,,,1.45,Wunderground v.1.12,2013-07-03 23:33:00,
2013-07-03 19:38:00,69.9,67.8,30.08,NNE,26,0.0,-999.0,93,0.00,,,1.45,Wunderground v.1.12,2013-07-03 23:38:00,
2013-07-03 19:43:00,69.8,67.7,30.08,NNE,26,0.0,-999.0,93,0.00,,,1.45,Wunderground v.1.12,2013-07-03 23:43:00,
2013-07-03 19:49:00,69.8,67.7,30.08,NNE,30,0.0,-999.0,93,0.00,,,1.45,Wunderground v.1.12,2013-07-03 23:49:00,
2013-07-03 19:54:00,69.8,67.7,30.08,NNE,30,0.0,-999.0,93,0.00,,,1.45,Wunderground v.1.12,2013-07-03 23:54:00,
2013-07-03 19:59:00,69.8,67.7,30.08,NNE,29,0.0,-999.0,93,0.00,,,1.45,Wunderground v.1.12,2013-07-03 23:59:00,
2013-07-03 20:04:00,69.8,67.7,30.08,NNE,33,0.0,-999.0,93,0.00,,,1.45,Wunderground v.1.12,2013-07-04 00:04:00,
2013-07-03 20:09:00,69.6,67.5,30.08,NNE,33,0.0,-999.0,93,0.00,,,1.45,Wunderground v.1.12,2013-07-04 00:09:00,
2013-07-03 20:14:00,69.6,67.5,30.08,NNE,33,0.0,-999.0,93,0.00,,,1.46,Wunderground v.1.12,2013-07-04 00:14:00,
2013-07-03 20:19:00,69.6,67.5,30.08,NNE,33,0.0,-999.0,93,0.00,,,1.46,Wunderground v.1.12,2013-07-04 00:19:00,
2013-07-03 20:25:00,69.6,67.5,30.09,NNE,33,0.0,-999.0,93,0.06,,,1.47,Wunderground v.1.12,2013-07-04 00:25:00,
2013-07-03 20:30:00,69.4,67.3,30.09,NNE,33,0.0,-999.0,93,0.06,,,1.47,Wunderground v.1.12,2013-07-04 00:30:00,
2013-07-03 20:35:00,69.4,67.3,30.09,NNE,33,0.0,-999.0,93,0.05,,,1.48,Wunderground v.1.12,2013-07-04 00:35:00,
2013-07-03 20:40:00,69.4,67.3,30.10,NNE,33,0.0,-999.0,93,0.11,,,1.49,Wunderground v.1.12,2013-07-04 00:40:00,
2013-07-03 20:46:00,69.4,67.3,30.10,NNE,33,0.0,-999.0,93,0.08,,,1.49,Wunderground v.1.12,2013-07-04 00:46:00,
2013-07-03 20:51:00,69.4,67.3,30.10,NNE,33,0.0,-999.0,93,0.05,,,1.49,Wunderground v.1.12,2013-07-04 00:51:00,
2013-07-03 20:56:00,69.4,67.3,30.10,NE,34,0.0,-999.0,93,0.00,,,1.49,Wunderground v.1.12,2013-07-04 00:56:00,
2013-07-03 21:01:00,69.4,67.3,30.10,NE,34,0.0,-999.0,93,0.00,,,1.50,Wunderground v.1.12,2013-07-04 01:01:00,
2013-07-03 21:07:00,69.3,67.2,30.10,North,358,0.0,-999.0,93,0.00,,,1.50,Wunderground v.1.12,2013-07-04 01:07:00,
2013-07-03 21:12:00,69.3,67.2,30.10,North,2,0.0,-999.0,93,0.00,,,1.50,Wunderground v.1.12,2013-07-04 01:12:00,
2013-07-03 21:17:00,69.1,67.0,30.10,ENE,65,0.0,-999.0,93,0.00,,,1.51,Wunderground v.1.12,2013-07-04 01:17:00,
2013-07-03 21:23:00,69.1,67.0,30.10,North,6,0.0,-999.0,93,0.00,,,1.51,Wunderground v.1.12,2013-07-04 01:23:00,
2013-07-03 21:28:00,68.9,66.8,30.10,ENE,62,0.0,-999.0,93,0.00,,,1.51,Wunderground v.1.12,2013-07-04 01:28:00,
2013-07-03 21:33:00,68.8,66.7,30.10,ENE,58,0.0,-999.0,93,0.00,,,1.51,Wunderground v.1.12,2013-07-04 01:33:00,
2013-07-03 21:38:00,68.8,66.7,30.10,NE,40,0.0,-999.0,93,0.00,,,1.52,Wunderground v.1.12,2013-07-04 01:38:00,
2013-07-03 21:43:00,68.6,66.5,30.10,NE,40,0.0,-999.0,93,0.08,,,1.53,Wunderground v.1.12,2013-07-04 01:43:00,
2013-07-03 21:48:00,68.4,66.3,30.10,East,95,0.0,-999.0,93,0.08,,,1.53,Wunderground v.1.12,2013-07-04 01:48:00,
2013-07-03 21:54:00,68.4,66.3,30.10,NE,51,0.0,-999.0,93,0.05,,,1.53,Wunderground v.1.12,2013-07-04 01:54:00,
2013-07-03 21:59:00,68.3,66.2,30.10,NE,51,0.0,-999.0,93,0.00,,,1.53,Wunderground v.1.12,2013-07-04 01:59:00,
2013-07-03 22:05:00,68.3,66.2,30.10,NE,51,0.0,-999.0,93,0.00,,,1.53,Wunderground v.1.12,2013-07-04 02:05:00,
2013-07-03 22:10:00,68.3,66.2,30.10,NE,51,0.0,-999.0,93,0.00,,,1.54,Wunderground v.1.12,2013-07-04 02:10:00,
2013-07-03 22:15:00,68.1,66.0,30.10,NE,51,0.0,-999.0,93,0.10,,,1.55,Wunderground v.1.12,2013-07-04 02:15:00,
2013-07-03 22:20:00,68.1,66.0,30.10,NE,51,0.0,-999.0,93,0.08,,,1.55,Wunderground v.1.12,2013-07-04 02:20:00,
2013-07-03 22:25:00,68.1,66.0,30.11,NE,51,0.0,-999.0,93,0.05,,,1.55,Wunderground v.1.12,2013-07-04 02:25:00,
2013-07-03 22:30:00,67.9,65.8,30.11,NE,51,0.0,-999.0,93,0.00,,,1.55,Wunderground v.1.12,2013-07-04 02:30:00,
2013-07-03 22:36:00,67.9,65.8,30.11,NE,51,0.0,-999.0,93,0.00,,,1.55,Wunderground v.1.12,2013-07-04 02:36:00,
2013-07-03 22:41:00,67.9,65.8,30.12,NE,51,0.0,-999.0,93,0.00,,,1.55,Wunderground v.1.12,2013-07-04 02:41:00,
2013-07-03 22:46:00,67.9,65.8,30.12,SE,139,0.0,-999.0,93,0.00,,,1.55,Wunderground v.1.12,2013-07-04 02:46:00,
2013-07-03 22:51:00,67.8,65.7,30.12,ESE,106,0.0,-999.0,93,0.00,,,1.55,Wunderground v.1.12,2013-07-04 02:51:00,
2013-07-03 22:56:00,67.8,66.0,30.12,NE,38,0.0,-999.0,94,0.00,,,1.56,Wunderground v.1.12,2013-07-04 02:56:00,
2013-07-03 23:01:00,67.8,66.0,30.12,ENE,58,0.0,-999.0,94,0.00,,,1.56,Wunderground v.1.12,2013-07-04 03:01:00,
2013-07-03 23:06:00,67.8,66.0,30.12,NE,43,0.0,-999.0,94,0.00,,,1.56,Wunderground v.1.12,2013-07-04 03:06:00,
2013-07-03 23:11:00,67.8,66.0,30.12,NE,43,0.0,-999.0,94,0.04,,,1.57,Wunderground v.1.12,2013-07-04 03:11:00,
2013-07-03 23:17:00,67.8,66.0,30.12,NE,43,0.0,-999.0,94,0.04,,,1.57,Wunderground v.1.12,2013-07-04 03:17:00,
2013-07-03 23:22:00,67.6,65.8,30.12,NE,43,0.0,-999.0,94,0.04,,,1.57,Wunderground v.1.12,2013-07-04 03:22:00,
2013-07-03 23:27:00,67.8,66.0,30.12,NE,43,0.0,-999.0,94,0.00,,,1.57,Wunderground v.1.12,2013-07-04 03:27:00,
2013-07-03 23:32:00,67.8,66.0,30.12,NE,43,0.0,-999.0,94,0.00,,,1.57,Wunderground v.1.12,2013-07-04 03:32:00,
2013-07-03 23:37:00,67.8,66.0,30.12,NE,44,0.0,-999.0,94,0.00,,,1.57,Wunderground v.1.12,2013-07-04 03:37:00,
2013-07-03 23:42:00,67.8,66.0,30.12,NNE,16,0.0,-999.0,94,0.00,,,1.57,Wunderground v.1.12,2013-07-04 03:42:00,
2013-07-03 23:47:00,67.8,66.0,30.12,NNE,19,0.0,-999.0,94,0.00,,,1.57,Wunderground v.1.12,2013-07-04 03:47:00,
2013-07-03 23:52:00,67.8,66.0,30.12,North,2,0.0,-999.0,94,0.00,,,1.57,Wunderground v.1.12,2013-07-04 03:52:00,
2013-07-03 23:57:00,67.8,66.0,30.12,North,3,0.0,-999.0,94,0.00,,,0.00,Wunderground v.1.12,2013-07-04 03:57:00,